Regional Weather Roundup
Issued by NWS

Home | Current Version | Previous Version | Text Only | Print | Product List | Glossary On
Versions: 1 2 3 4 5 6 7 8 9 10 11 12 13 14 15 16 17 18 19 20 21 22 23 24 25 26 27 28 29 30 31 32 33 34 35 36 37 38 39 40 41 42 43 44 45 46 47 48 49 50
000
ASUS43 KMPX 291910
RWRMN
WEATHER ROUNDUP FOR MINNESOTA
NATIONAL WEATHER SERVICE TWIN CITIES/CHANHASSEN MN
200 PM CDT SUN MAR 29 2015


NOTE: "FAIR" INDICATES FEW OR NO CLOUDS BELOW 12,000 FEET WITH NO
SIGNIFICANT WEATHER AND/OR OBSTRUCTIONS TO VISIBILITY. N/A MEANS
CURRENT SKY AND/OR WEATHER CONDITIONS ARE NOT AVAILABLE.

MNZ060>063-068>070-292000-
   Twin Cities Metro

CITY           SKY/WX    TMP DP  RH WIND       PRES   REMARKS
TWIN CITIES    PTSUNNY   47  39  74 NW29G40   29.71R
ST PAUL        CLOUDY    46  40  79 W26G32    29.70R
CRYSTAL        CLOUDY    49  38  65 NW21G33   29.70R
BLAINE         PTSUNNY   48  41  76 NW26G36   29.68R
LAKEVILLE      CLOUDY    43  37  81 NW24G40   29.71R
EDEN PRAIRIE   PTSUNNY   49  36  61 NW21G37   29.72R
SOUTH ST PAUL  CLOUDY    46  42  85 W16G25    29.70R
LAKE ELMO      CLOUDY    45  41  87 W16G25    29.69R
$$
MNZ001>005-007-008-013>017-022>024-027-028-292000-
   Northwest Minnesota

CITY           SKY/WX    TMP DP  RH WIND       PRES   REMARKS
BEMIDJI        MOSUNNY   44  29  55 NW33G41   29.75R
HALLOCK        MOSUNNY   48  36  61 NW21G36   29.83S
ROSEAU         PTSUNNY   46  36  66 NW24G30   29.76S
WARROAD        MOSUNNY   45  34  65 NW21G39   29.75S
THIEF RVR FALL CLOUDY    45  34  65 NW29G36   29.83R
CROOKSTON      MOSUNNY   48  34  57 N30G38    29.86S
FOSSTON        PTSUNNY   43  34  70 NW28G38   29.82R
DETROIT LAKES  MOSUNNY   45  34  65 N31G39    29.84R
MOORHEAD       MOSUNNY   52  36  54 NW31G39   29.88R
PARK RAPIDS    MOSUNNY   47  31  53 NW28G40   29.75R
MAHNOMEN       CLOUDY    45  35  68 NW31G39   29.83R
$$
MNZ006-009>011-018-025>026-292000-
   North Central Minnesota

CITY           SKY/WX    TMP DP  RH WIND       PRES   REMARKS
BAUDETTE       PTSUNNY   41  31  67 NW22G35   29.71R
FLAG ISLAND    MOSUNNY   37  28  70 NW25G31   29.71R
INTL FALLS     CLOUDY    39  31  72 NW22G33   29.63R
WASKISH        PTSUNNY   41  30  65 NW22G29   29.73R
BIG FORK       LGT RAIN  39  34  81 NW10G22   29.66R
LONGVILLE      MOSUNNY   45  30  57 NW18G29   29.70R
GRAND RAPIDS   CLOUDY    37  30  75 NW25G35   29.65R
CRANE LAKE     CLOUDY    36  34  93 NW15G21   29.59R
ORR            CLOUDY    37  32  81 NW18G26   29.58R
COOK           CLOUDY    36  34  93 NW14G24   29.59R
WALKER         MOCLDY    45  29  53 NW14G26   29.72R
$$
MNZ012-019>021-037-292000-
   Northeast Minnesota

CITY           SKY/WX    TMP DP  RH WIND       PRES   REMARKS
DULUTH         LGT RAIN  39  34  82 NW24G37   29.54R
ELY            DRIZZLE   36  34  93 NW15G24   29.51R
HIBBING        LGT RAIN  36  33  89 NW23G33   29.60R
EVELETH        LGT RAIN  36  34  93 NW21G29   29.58R
DULUTH HARBOR  CLOUDY    39  37  93 NW25G31   29.57R
TWO HARBORS    CLOUDY    45  37  76 NW12G21   29.49R
SILVER BAY     CLOUDY    41  36  81 NW8G22    29.45R
GRAND MARAIS     N/A     34  33  96 W8        29.41F WCI  27
G MARAIS ARPRT FLURRIES  34  28  80 NW13G24   29.37F WCI  25
$$
MNZ029>031-032-039>041-046>048-054>057-064-292000-
   West Central Minnesota

CITY           SKY/WX    TMP DP  RH WIND       PRES   REMARKS
FERGUS FALLS   SUNNY     48  30  49 NW32G41   29.88R
WHEATON        MOSUNNY   52  32  46 NW30G40   29.92R
MORRIS         MOSUNNY   52  36  54 NW31G44   29.85R
ALEXANDRIA     MOSUNNY   47  31  53 NW31G43   29.82R
ELBOW LAKE     FAIR      47  33  56 NW29G39   29.85R
WADENA         SUNNY     45  32  61 NW23G35   29.79R
GLENWOOD       SUNNY     48  34  57 NW37G44   29.82R
APPLETON       SUNNY     54  32  43 NW32G39   29.89R
BENSON         MOSUNNY   52  32  46 N29G45    29.86R
ORTONVILLE     SUNNY     52  30  43 NW25G40   29.91R
MADISON        SUNNY     54  32  43 NW28G36   29.91R
WILLMAR        FAIR      52  34  50 NW37G44   29.84R
$$
MNZ033>034-036-042>043-049>051-058-059-292000-
   Central Minnesota

CITY           SKY/WX    TMP DP  RH WIND       PRES   REMARKS
ST CLOUD       MOSUNNY   48  35  60 NW25G41   29.73R
SAUK CENTRE    FAIR      47  32  56 NW28G39   29.79R
PAYNESVILLE    SUNNY     45  33  62 W24G40    29.80R
AITKIN         CLOUDY    46  34  61 NW12G26   29.67R
PINE RIVER     PTSUNNY   46  32  57 NW22G29   29.74R
BRAINERD       MOSUNNY   48  29  47 NW28G38   29.71R
STAPLES        MOSUNNY   46  30  53 NW24G37   29.76R
LONG PRAIRIE   FAIR      45  32  61 NW32G39   29.79R
LITTLE FALLS   SUNNY     46  30  53 NW18G29   29.74R
LITCHFIELD     SUNNY     48  34  57 NW25G33   29.79R
BUFFALO        MOSUNNY   46  36  66 W21G30    29.74R
MAPLE LAKE     MOSUNNY   48  37  66 W23G33    29.75R
$$
MNZ037-044-045-052-053-292000-
   East Central Minnesota

CITY           SKY/WX    TMP DP  RH WIND       PRES   REMARKS
PRINCETON      MOSUNNY   52  36  54 NW23G40   29.69R
MORA           MOSUNNY   45  34  65 NW24G38   29.69R
CAMBRIDGE      MOSUNNY   50  37  62 NW20G31   29.66R
RUSH CITY      CLOUDY    43  35  73 NW21G31   29.67R
MOOSE LAKE     CLOUDY    39  32  75 NW16G23   29.62R
HINCKLEY       CLOUDY    43  36  75 NW21G32   29.65R
CLOQUET        CLOUDY    37  32  81 NW20G36   29.59R
MCGREGOR       CLOUDY    39  34  81 NW16G32   29.66R
$$
MNZ071>073-080-081-089-090-097-098-292000-
   Southwest Minnesota

CITY           SKY/WX    TMP DP  RH WIND       PRES   REMARKS
MONTEVIDEO     MOSUNNY   54  36  50 N30G44    29.88R
GRANITE FALLS  MOSUNNY   52  35  51 NW31G43   29.90R
CANBY          SUNNY     54  30  40 NW30G40   29.93R
REDWOOD FALLS  SUNNY     54  34  46 NW26G41   29.85R
OLIVIA         MOSUNNY   50  36  57 NW30G44   29.83R
PIPESTONE      SUNNY     54  28  37 N31G40    29.93R
WINDOM         SUNNY     55  28  35 NW33G45   29.86R
JACKSON        SUNNY     55  32  41 NW29G43   29.86R
TRACY          SUNNY     54  33  43 NW29G39   29.89S
SLAYTON        SUNNY     54  26  34 NW29G39   29.91R
$$
MNZ065>067-074>077-082>085-091>093-292000-
   South Central Minnesota

CITY           SKY/WX    TMP DP  RH WIND       PRES   REMARKS
NEW ULM        SUNNY     52  34  50 NW31G47   29.80R
ST JAMES       SUNNY     54  34  47 NW31G44   29.84R
FAIRMONT       SUNNY    N/A N/A N/A NW31G43   29.82R
GLENCOE        MOSUNNY   48  39  70 NW24G40   29.77R
FARIBAULT      CLOUDY    45  37  76 NW21G35   29.75R
OWATONNA       CLOUDY    45  37  76 NW25G37   29.76R
WASECA         CLOUDY    46  37  71 NW36      29.78R
ALBERT LEA     CLOUDY    48  37  66 NW21G35   29.77R
$$
MNZ078>079-086>088-094>096-292000-
   Southeast Minnesota

CITY           SKY/WX    TMP DP  RH WIND       PRES   REMARKS
ROCHESTER      CLOUDY    40  34  79 NW32G40   29.70R
RED WING       CLOUDY    41  37  87 NW16G24   29.68R
STANTON        CLOUDY    45  39  79 W23G29    29.71R
DODGE CENTER   CLOUDY    43  37  81 NW21G33   29.73R
WINONA         CLOUDY    43  36  75 W20G33    29.66R
AUSTIN         CLOUDY    45  37  76 NW25G33   29.76R
PRESTON        CLOUDY    40  34  81 W25G38    29.72R
$$
ABBREVIATIONS USED IN REMARKS
   TC - TEMPERATURES IN CELSIUS
  WCI - WIND CHILL INDEX
   HX - HEAT INDEX
  VSB - VISIBILITY
$$



USA.gov is the U.S. government's official web portal to all federal, state and local government web resources and services.